Orbital Elements at Epoch 2459000.5 (2020-May-31.0) TDB
Reference: JPL 8 (heliocentric ecliptic J2000)
Element | Value | Uncertainty (1-sigma) | Units |
e | .420243932763785 | 1.1874e-06 | |
a | 2.150395294338592 | 1.0985e-06 | au |
q | 1.246704718849005 | 3.1866e-06 | au |
i | 5.853624705367805 | 4.9844e-05 | deg |
node | 164.8613682617244 | 0.00017019 | deg |
peri | 88.0856525389401 | 0.00032924 | deg |
M | 346.9725880256976 | 0.0002626 | deg |
tp | 2459042.180366102776 (2020-Jul-11.68036610) | 0.00087141 | TDB |
period | 1151.796828610139 3.15 | 0.00088255 2.416e-06 | d yr |
n | .3125551234885827 | 2.3949e-07 | deg/d |
Q | 3.054085869828179 | 1.5601e-06 | au |
|
| | Orbit Determination Parameters
Additional Information
|